Jackson Hawkins Field, MS

11:40 PM CDT on March 23, 2017 (GMT -0500)
Hawkins

Weather History for KHKS - November, 2012

Change the Weather History Date:

Monday, November 5, 2012

  Actual Average (KJAN) Record (KJAN)
Temperature  
Mean Temperature 50 °F -  
Max Temperature 53 °F 67 °F 85 °F (2003)
Min Temperature 46 °F 42 °F 23 °F (1991)
Degree Days  
Heating Degree Days 16    
Moisture  
Dew Point 48 °F    
Average Humidity 89    
Maximum Humidity 100    
Minimum Humidity 77    
Precipitation  
Precipitation 0.30 in - - ()
Sea Level Pressure  
Sea Level Pressure 30.02 in    
Wind  
Wind Speed 3 mph (ESE)    
Max Wind Speed 12 mph    
Max Gust Speed -    
Visibility 7 miles    
Events Rain , Thunderstorm    
Averages and records for this station are not official NWS values.
T = Trace of Precipitation, MM = Missing Value Source: NWS Daily Summary

Daily Weather History Graph

Daily Weather History Graph

Search for Another Location

Airport or City:

Trip Planner

Search our weather history database for the weather conditions in past years. The results will help you decide how hot, cold, wet, or windy it might be!

Date:

Astronomy

Nov. 05, 2012 Rise Set
Actual Time 6:21 AM CST 5:06 PM CST
Civil Twilight 5:56 AM CST 5:32 PM CST
Nautical Twilight 5:27 AM CST 6:01 PM CST
Astronomical Twilight 4:58 AM CST 6:30 PM CST
Moon 10:43 PM CST (11/5) 11:40 AM CST (11/5)
Length of Visible Light 11h 36m
Length of Day
10h 44m
Waning Gibbous, 62% of the Moon is Illuminated
Nov 5
Waning Gibbous
Nov 6
Last Quarter
Nov 13
New
Nov 20
First Quarter
Nov 28
Full

Hourly Weather History & Observations

Time (CST) Temp. Dew Point Humidity Pressure Visibility Wind Dir Wind Speed Gust Speed Precip Events Conditions
12:53 AM 50.0 °F 46.9 °F 89% 30.09 in 8.0 mi Calm Calm - N/A   Overcast
1:53 AM 46.9 °F 45.0 °F 93% 30.08 in 5.0 mi Calm Calm - N/A   Mostly Cloudy
2:53 AM 48.9 °F 46.0 °F 90% 30.07 in 9.0 mi Calm Calm - N/A   Mostly Cloudy
3:53 AM 50.0 °F 45.0 °F 83% 30.06 in 10.0 mi Calm Calm - N/A   Mostly Cloudy
4:53 AM 48.9 °F 44.1 °F 83% 30.07 in 10.0 mi Calm Calm - N/A   Mostly Cloudy
5:53 AM 50.0 °F 46.0 °F 86% 30.07 in 10.0 mi Calm Calm - N/A   Overcast
6:20 AM 50.0 °F 44.6 °F 82% 30.08 in 10.0 mi ESE 5.8 mph - N/A Thunderstorm Overcast
6:53 AM 50.0 °F 44.1 °F 80% 30.06 in 10.0 mi ESE 8.1 mph - N/A   Overcast
7:53 AM 51.1 °F 44.1 °F 77% 30.07 in 5.0 mi SSE 10.4 mph - 0.01 in Rain Rain
8:10 AM 50.0 °F 44.6 °F 82% 30.10 in 1.8 mi SE 6.9 mph - 0.08 in Rain Rain
8:25 AM 48.2 °F 46.4 °F 93% 30.10 in 4.0 mi SE 5.8 mph - 0.16 in Rain Light Rain
8:53 AM 50.0 °F 46.9 °F 89% 30.09 in 6.0 mi ESE 5.8 mph - 0.18 in Rain Light Rain
9:53 AM 51.1 °F 48.0 °F 89% 30.05 in 7.0 mi SSE 11.5 mph - 0.01 in   Overcast
10:41 AM 51.8 °F 48.2 °F 88% 30.07 in 9.0 mi East 6.9 mph - 0.00 in   Overcast
10:53 AM 52.0 °F 48.0 °F 86% 30.06 in 9.0 mi SE 8.1 mph - 0.00 in   Overcast
11:38 AM 53.6 °F 48.2 °F 82% 30.04 in 9.0 mi ESE 5.8 mph - 0.00 in Rain Light Rain
11:53 AM 52.0 °F 48.0 °F 86% 30.02 in 2.5 mi ESE 5.8 mph - 0.02 in Rain Rain
12:06 PM 53.6 °F 48.2 °F 82% 30.03 in 4.0 mi NNE 3.5 mph - 0.01 in Rain Light Rain
12:11 PM 51.8 °F 48.2 °F 88% 30.03 in 2.5 mi East 4.6 mph - 0.04 in Rain Heavy Rain
12:25 PM 51.8 °F 48.2 °F 88% 30.02 in 7.0 mi East 4.6 mph - 0.04 in Rain Light Rain
12:53 PM 53.1 °F 48.9 °F 86% 29.99 in 8.0 mi ESE 6.9 mph - 0.04 in Rain Light Rain
1:17 PM 53.6 °F 48.2 °F 82% 29.99 in 9.0 mi ESE 8.1 mph - 0.00 in   Overcast
1:53 PM 53.1 °F 50.0 °F 89% 29.97 in 8.0 mi SE 4.6 mph - 0.00 in   Overcast
2:53 PM 53.1 °F 48.9 °F 86% 29.96 in 10.0 mi SE 6.9 mph - 0.01 in   Overcast
3:53 PM 53.1 °F 50.0 °F 89% 29.97 in 9.0 mi Calm Calm - 0.00 in Rain Light Rain
4:53 PM 53.1 °F 50.0 °F 89% 29.96 in 10.0 mi Calm Calm - 0.00 in   Overcast
5:51 PM 51.8 °F 51.8 °F 100% 29.96 in 6.0 mi NW 3.5 mph - 0.02 in Rain Light Rain
5:53 PM 52.0 °F 51.1 °F 97% 29.95 in 6.0 mi Calm Calm - 0.02 in   Mostly Cloudy
6:02 PM 51.8 °F 51.8 °F 100% 29.95 in 6.0 mi Calm Calm - N/A   Overcast
6:48 PM 53.6 °F 51.8 °F 94% 30.00 in 5.0 mi Variable 5.8 mph - 0.01 in   Overcast
6:53 PM 53.1 °F 51.1 °F 93% 29.99 in 5.0 mi North 6.9 mph - 0.01 in   Overcast
7:00 PM 51.8 °F 51.8 °F 100% 30.00 in 5.0 mi North 4.6 mph - N/A   Overcast
7:53 PM 52.0 °F 50.0 °F 93% 30.00 in 5.0 mi NE 3.5 mph - N/A   Overcast
8:53 PM 51.1 °F 50.0 °F 96% 29.99 in 6.0 mi Calm Calm - N/A   Overcast
9:53 PM 52.0 °F 50.0 °F 93% 29.99 in 7.0 mi Calm Calm - N/A   Overcast
10:53 PM 52.0 °F 50.0 °F 93% 29.99 in 6.0 mi Calm Calm - N/A   Overcast
11:53 PM 52.0 °F 50.0 °F 93% 29.98 in 5.0 mi NW 3.5 mph - N/A   Overcast